Location: Corralito
(14.1667°N, 87.1833°W)
Time: 11:36:36
(UTC+00:00)

USA 229 - Pass Details

Date: 07 June 2020
Orbit: 980 x 1233 km, 63.4° (Epoch: 24 June)

Event Time Altitude Azimuth Distance (km) Brightness Sun altitude
Rises 08:26:47 0° 342° (NNW) 4,064 7.0 -36.3°
Reaches altitude 10° 08:29:33 10° 347° (NNW) 3,127 6.4 -35.8°
Maximum altitude 08:37:00 58° 65° (ENE) 1,403 4.4 -34.5°
Drops below altitude 10° 08:44:33 10° 142° (SE) 3,185 6.1 -33.1°
Sets 08:47:23 0° 146° (SSE) 4,144 6.7 -32.5°
